Home > Weather > Minamisōma > Past weeks

Flag for Japan Weather for the Past 2 Weeks in Minamisōma, Japan

Now
59 °F

Broken clouds.


Feels Like: 57 °F
Forecast: 56 / 78 °F
Wind: 10 mph from Southeast

Location: Sendai Airport

Current Time: May 6, 2016 at 5:12:39 PM

Latest Report: May 6, 2016 at 4:00 PM


Visibility: N/A

Pressure: 29.95 "Hg

Humidity: 63%

Dew Point: 46 °F

Location of MinamisōmaLocation

Historic Weather in Minamisōma — Graph

°F

Minamisōma Temperature Yesterday

Maximum temperature yesterday: 70 °F (at 1:00 PM)
Minimum temperature yesterday: 59 °F (at 8:00 PM)
Average temperature yesterday: 65 °F

High & Low Weather Summary for the Past Weeks

 TemperatureHumidityPressure
High70 °F (May 5, 1:00 PM)100% (Apr 22, 6:00 AM)30.18 "Hg (Apr 22, 6:00 AM)
Low45 °F (Apr 25, 6:00 AM)18% (Apr 24, 10:00 AM)29.33 "Hg (Apr 28, 9:00 PM)
Average56 °F70%29.85 "Hg
* Reported Apr 21 4:00 PM — May 6 4:00 PM, Minamisōma, Weather by CustomWeather, © 2016

Note: Actual official high and low records may vary slightly from our data, if they occured in-between our weather recording intervals... More about our weather records

Advertising

Minamisōma Weather History for the Previous 24 Hours

Scroll right to see more
 ConditionsComfort  
Time TempWeatherWind HumidityBarometerVisibility
4:00 PM
Fri, May 6
59 °FBroken clouds.10 mph63%29.95 "HgN/A
3:00 PM61 °FBroken clouds.10 mph59%29.98 "HgN/A
2:00 PM63 °FPartly sunny.13 mph52%29.98 "HgN/A
1:00 PM64 °FSunny.13 mph37%30.01 "Hg10 mi
12:00 PM64 °FSunny.13 mph46%30.01 "Hg10 mi
11:00 AM66 °FSunny.10 mph37%30.01 "Hg10 mi
10:00 AM70 °FPassing clouds.10 mph29%30.01 "HgN/A
9:00 AM64 °FPassing clouds.9 mph34%30.04 "HgN/A
8:00 AM63 °FSunny.10 mph39%30.04 "Hg10 mi
7:00 AM59 °FSunny.2 mph45%30.04 "Hg10 mi
6:00 AM52 °FPartly sunny.1 mph58%30.04 "HgN/A
9:00 PM
Thu, May 5
59 °FPassing clouds.10 mph36%29.92 "HgN/A
8:00 PM59 °FPassing clouds.3 mph39%29.89 "HgN/A
7:00 PM61 °FPassing clouds.9 mph36%29.89 "HgN/A
6:04 PM63 °FPassing clouds.23 mph37%29.83 "HgN/A
6:00 PM63 °FPassing clouds.24 mph37%29.83 "HgN/A
5:03 PM66 °FScattered clouds.23 mph32%29.83 "HgN/A
5:00 PM66 °FScattered clouds.24 mph32%29.83 "HgN/A
Weather by CustomWeather, © 2016

See weather overviewHow to use our weather pages